Scottsboro, AL

10:00 PM CDT on March 22, 2017 (GMT -0500)
Scottsboro

Weather History for K4A6 - March, 2013

Change the Weather History Date:

Friday, March 29, 2013

  Actual Average (KHSV) Record (KHSV)
Temperature  
Mean Temperature 47 °F -  
Max Temperature 59 °F 68 °F 88 °F (2007)
Min Temperature 35 °F 47 °F 26 °F (1955)
Degree Days  
Heating Degree Days 18    
Moisture  
Dew Point 35 °F    
Average Humidity 62    
Maximum Humidity 93    
Minimum Humidity 39    
Precipitation  
Precipitation 0.00 in - - ()
Sea Level Pressure  
Sea Level Pressure 30.27 in    
Wind  
Wind Speed 3 mph (NE)    
Max Wind Speed 10 mph    
Max Gust Speed -    
Averages and records for this station are not official NWS values.
T = Trace of Precipitation, MM = Missing Value Source: NWS Daily Summary

Daily Weather History Graph

Daily Weather History Graph

Search for Another Location

Airport or City:

Trip Planner

Search our weather history database for the weather conditions in past years. The results will help you decide how hot, cold, wet, or windy it might be!

Date:

Astronomy

Mar. 29, 2013 Rise Set
Actual Time 6:34 AM CDT 7:03 PM CDT
Civil Twilight 6:09 AM CDT 7:28 PM CDT
Nautical Twilight 5:39 AM CDT 7:58 PM CDT
Astronomical Twilight 5:09 AM CDT 8:28 PM CDT
Moon 9:54 PM CDT (3/29) 7:50 AM CDT (3/29)
Length of Visible Light 13h 18m
Length of Day
12h 28m
Waning Gibbous, 93% of the Moon is Illuminated
Mar 29
Waning Gibbous
Apr 2
Last Quarter
Apr 10
New
Apr 18
First Quarter
Apr 25
Full

Hourly Weather History & Observations

Time (CDT) Temp. Windchill Dew Point Humidity Pressure Visibility Wind Dir Wind Speed Gust Speed Precip Events Conditions
12:15 AM 39.2 °F - 33.8 °F 81% 30.32 in - Calm Calm - N/A   Clear
12:35 AM 39.2 °F - 33.8 °F 81% 30.32 in - Calm Calm - N/A   Scattered Clouds
12:55 AM 37.4 °F - 33.8 °F 87% 30.32 in - Calm Calm - N/A   Unknown
1:15 AM 37.4 °F 34.9 °F 33.8 °F 87% 30.31 in - NE 3.5 mph - N/A   Mostly Cloudy
1:35 AM 37.4 °F - 33.8 °F 87% 30.32 in - Calm Calm - N/A   Mostly Cloudy
1:55 AM 37.4 °F - 33.8 °F 87% 30.31 in - Calm Calm - N/A   Mostly Cloudy
2:15 AM 37.4 °F - 32.0 °F 81% 30.32 in - Calm Calm - N/A   Mostly Cloudy
2:35 AM 37.4 °F - 32.0 °F 81% 30.32 in - Calm Calm - N/A   Overcast
2:55 AM 37.4 °F 34.9 °F 33.8 °F 87% 30.32 in - North 3.5 mph - N/A   Overcast
3:15 AM 37.4 °F - 33.8 °F 87% 30.31 in - Calm Calm - N/A   Overcast
3:35 AM 37.4 °F - 32.0 °F 81% 30.31 in - Calm Calm - N/A   Overcast
3:55 AM 37.4 °F - 33.8 °F 87% 30.30 in - Calm Calm - N/A   Overcast
4:15 AM 37.4 °F - 33.8 °F 87% 30.30 in - Calm Calm - N/A   Unknown
4:35 AM 37.4 °F - 33.8 °F 87% 30.29 in - Calm Calm - N/A   Overcast
4:55 AM 35.6 °F - 33.8 °F 93% 30.30 in - Calm Calm - N/A   Overcast
5:15 AM 35.6 °F - 33.8 °F 93% 30.30 in - Calm Calm - N/A   Unknown
5:35 AM 37.4 °F - 33.8 °F 87% 30.30 in - Calm Calm - N/A   Overcast
5:55 AM 37.4 °F - 35.6 °F 93% 30.30 in - Calm Calm - N/A   Unknown
6:15 AM 37.4 °F - 33.8 °F 87% 30.31 in - Calm Calm - N/A   Unknown
6:35 AM 35.6 °F - 33.8 °F 93% 30.31 in - Calm Calm - N/A   Unknown
6:55 AM 35.6 °F - 33.8 °F 93% 30.32 in - Calm Calm - N/A   Unknown
7:15 AM 37.4 °F - 33.8 °F 87% 30.32 in - Calm Calm - N/A   Mostly Cloudy
7:35 AM 39.2 °F - 35.6 °F 87% 30.33 in - Calm Calm - N/A   Overcast
7:55 AM 41.0 °F 39.0 °F 33.8 °F 76% 30.33 in - NNE 3.5 mph - N/A   Overcast
8:15 AM 42.8 °F 40.1 °F 33.8 °F 70% 30.34 in - North 4.6 mph - N/A   Overcast
8:35 AM 44.6 °F 42.2 °F 35.6 °F 71% 30.33 in - ENE 4.6 mph - N/A   Overcast
8:55 AM 44.6 °F 42.2 °F 35.6 °F 71% 30.33 in - NE 4.6 mph - N/A   Overcast
9:15 AM 46.4 °F 45.2 °F 33.8 °F 62% 30.32 in - NNE 3.5 mph - N/A   Overcast
9:35 AM 48.2 °F - 35.6 °F 62% 30.32 in - North 3.5 mph - N/A   Overcast
9:55 AM 50.0 °F - 35.6 °F 58% 30.32 in - North 5.8 mph - N/A   Mostly Cloudy
10:15 AM 50.0 °F - 35.6 °F 58% 30.33 in - North 4.6 mph - N/A   Mostly Cloudy
10:35 AM 51.8 °F - 35.6 °F 54% 30.33 in - East 4.6 mph - N/A   Overcast
10:55 AM 51.8 °F - 35.6 °F 54% 30.33 in - ENE 8.1 mph - N/A   Mostly Cloudy
11:15 AM 53.6 °F - 32.0 °F 44% 30.34 in - NE 10.4 mph - N/A   Mostly Cloudy
11:55 AM 55.4 °F - 32.0 °F 41% 30.32 in - ENE 6.9 mph - N/A   Scattered Clouds
12:15 PM 55.4 °F - 32.0 °F 41% 30.31 in - NE 6.9 mph - N/A   Scattered Clouds
12:35 PM 55.4 °F - 32.0 °F 41% 30.30 in - ENE 4.6 mph - N/A   Overcast
12:55 PM 57.2 °F - 33.8 °F 41% 30.29 in - ENE 4.6 mph - N/A   Mostly Cloudy
1:15 PM 59.0 °F - 33.8 °F 39% 30.27 in - North 4.6 mph - N/A   Mostly Cloudy
1:35 PM 59.0 °F - 33.8 °F 39% 30.26 in - NNE 3.5 mph - N/A   Mostly Cloudy
1:55 PM 59.0 °F - 33.8 °F 39% 30.25 in - East 3.5 mph - N/A   Overcast
2:15 PM 59.0 °F - 35.6 °F 42% 30.24 in - ENE 5.8 mph - N/A   Overcast
2:35 PM 59.0 °F - 35.6 °F 42% 30.23 in - NE 8.1 mph - N/A   Overcast
2:55 PM 59.0 °F - 37.4 °F 45% 30.22 in - East 8.1 mph - N/A   Overcast
3:15 PM 59.0 °F - 35.6 °F 42% 30.21 in - ENE 8.1 mph - N/A   Mostly Cloudy
3:35 PM 59.0 °F - 35.6 °F 42% 30.21 in - ENE 9.2 mph - N/A   Overcast
3:55 PM 59.0 °F - 35.6 °F 42% 30.20 in - ENE 6.9 mph - N/A   Overcast
4:15 PM 59.0 °F - 35.6 °F 42% 30.20 in - ENE 5.8 mph - N/A   Mostly Cloudy
4:35 PM 59.0 °F - 35.6 °F 42% 30.20 in - NE 5.8 mph - N/A   Partly Cloudy
4:55 PM 59.0 °F - 35.6 °F 42% 30.19 in - ENE 6.9 mph - N/A   Clear
5:15 PM 59.0 °F - 35.6 °F 42% 30.18 in - ENE 6.9 mph - N/A   Clear
5:35 PM 57.2 °F - 35.6 °F 44% 30.18 in - NNE 8.1 mph - N/A   Clear
5:55 PM 57.2 °F - 35.6 °F 44% 30.18 in - NE 8.1 mph - N/A   Scattered Clouds
6:15 PM 57.2 °F - 35.6 °F 44% 30.18 in - NE 8.1 mph - N/A   Mostly Cloudy
6:35 PM 55.4 °F - 35.6 °F 47% 30.18 in - NNE 5.8 mph - N/A   Mostly Cloudy
6:55 PM 55.4 °F - 35.6 °F 47% 30.19 in - NE 8.1 mph - N/A   Overcast
7:15 PM 55.4 °F - 35.6 °F 47% 30.19 in - NE 6.9 mph - N/A   Overcast
7:35 PM 55.4 °F - 35.6 °F 47% 30.19 in - NE 6.9 mph - N/A   Overcast
7:55 PM 55.4 °F - 33.8 °F 44% 30.19 in - NNE 5.8 mph - N/A   Overcast
8:15 PM 53.6 °F - 33.8 °F 47% 30.20 in - NNE 5.8 mph - N/A   Overcast
8:35 PM 53.6 °F - 32.0 °F 44% 30.21 in - NE 5.8 mph - N/A   Overcast
8:55 PM 53.6 °F - 33.8 °F 47% 30.21 in - NE 4.6 mph - N/A   Overcast
9:15 PM 53.6 °F - 33.8 °F 47% 30.22 in - NE 4.6 mph - N/A   Overcast
9:35 PM 53.6 °F - 33.8 °F 47% 30.22 in - NE 3.5 mph - N/A   Overcast
9:55 PM 53.6 °F - 33.8 °F 47% 30.22 in - NNE 5.8 mph - N/A   Overcast
10:15 PM 51.8 °F - 35.6 °F 54% 30.23 in - ENE 4.6 mph - N/A   Overcast
10:35 PM 51.8 °F - 35.6 °F 54% 30.23 in - North 4.6 mph - N/A   Overcast
10:55 PM 50.0 °F - 35.6 °F 58% 30.23 in - ENE 3.5 mph - N/A Rain Light Rain
11:15 PM 50.0 °F - 37.4 °F 62% 30.22 in - ENE 4.6 mph - N/A   Overcast
11:35 PM 50.0 °F - 37.4 °F 62% 30.21 in - NNE 3.5 mph - N/A   Overcast
11:55 PM 50.0 °F - 37.4 °F 62% 30.20 in - NNE 5.8 mph - N/A   Overcast